Regional Weather Roundup
Issued by NWS

Home | Current Version | Previous Version | Graphics & Text | Print | Product List | Glossary On
Versions: 1 2 3 4 5 6 7 8 9 10 11 12 13 14 15 16 17 18 19 20 21 22 23 24 25 26 27 28 29 30 31 32 33 34 35 36 37 38 39 40 41 42 43 44 45 46 47 48 49 50
000
ASUS43 KMKX 270111
RWRWI

WISCONSIN REGIONAL WEATHER ROUNDUP
NATIONAL WEATHER SERVICE MILWAUKEE/SULLIVAN WI
700 PM CST FRI DEC 26 2014

NOTE: "FAIR" INDICATES FEW OR NO CLOUDS BELOW 12,000 FEET WITH NO
SIGNIFICANT WEATHER AND/OR OBSTRUCTIONS TO VISIBILITY.

WIZ001-002-006>008-014>016-023>028-270200-
NORTHWEST WISCONSIN

CITY           SKY/WX    TMP DP  RH WIND       PRES   REMARKS
SUPERIOR ARPT  CLOUDY    30  24  77 N9        30.11S WCI  22
ASHLAND        CLOUDY    30  27  88 NW3       30.08S
HAYWARD        CLOUDY    29  25  85 N6        30.06S WCI  23
SIREN          CLOUDY    30  25  82 N7        30.08R WCI  23
CUMBERLAND     CLOUDY    30  27  86 N9        30.03S WCI  22
RICE LAKE      CLOUDY    31  28  86 N8        30.05F WCI  24
CHETEK         CLOUDY    31  27  84 N6        30.04S WCI  26
LADYSMITH      CLOUDY    32  29  90 N9        30.04F WCI  24
EAU CLAIRE     CLOUDY    33  28  81 N5        30.04R WCI  29
MENOMONIE      CLOUDY    33  29  86 N5        30.05R WCI  28
NEW RICHMOND   CLOUDY    31  28  89 N6        30.07R WCI  25
OSCEOLA        CLOUDY    31  29  94 N5        30.11R WCI  26
$$

WIZ003>005-009-010-017-018-270200-
NORTH CENTRAL WISCONSIN

CITY           SKY/WX    TMP DP  RH WIND       PRES   REMARKS
MANITOWISH WTR CLOUDY    29  29 100 NE5       30.01S WCI  24
ARBOR VITAE    FLURRIES  32  30  94 CALM      30.01F
WOODRUFF       FLURRIES  32  30  94 CALM      30.01F
RHINELANDER    CLOUDY    29  28  96 NE3       30.01F
EAGLE RIVER    CLOUDY    30  30 100 NE3       30.01S
LAND O LAKES   CLOUDY    31  29  95 N3        30.02S
PHILLIPS       CLOUDY    29  28  96 N9        30.01S WCI  21
TOMAHAWK       CLOUDY    31  28  92 CALM      30.02S
MEDFORD        CLOUDY    31  29  93 NE7       30.00S WCI  24
MERRILL        CLOUDY    32  32  99 NE5       30.01S FOG     WCI  28
$$

WIZ029-030-035-036-043>047-270200-
CENTRAL WISCONSIN

CITY           SKY/WX    TMP DP  RH WIND       PRES   REMARKS
WAUSAU         CLOUDY    34  32  92 NE3       29.99S
MOSINEE        CLOUDY    34  34 100 NE6       30.01R FOG     WCI  29
MARSHFIELD     CLOUDY    34  31  88 NE7       30.00R WCI  28
STEVENS POINT  CLOUDY    31  31  99 NE7       30.01S FOG     WCI  25
WAUPACA        CLOUDY    34  33  96 N5        30.02R FOG     WCI  30
WAUTOMA        CLOUDY    33  33 100 NE5       30.02R FOG     WCI  28
WISC RAPIDS    CLOUDY    34  30  85 E6        30.02R WCI  29
CAMP DOUGLAS   CLOUDY    38  38 100 N3        30.00R
$$

WIZ011>013-019>022-031-037>040-048>050-270200-
NORTHEAST WISCONSIN

CITY           SKY/WX    TMP DP  RH WIND       PRES   REMARKS
ANTIGO         CLOUDY    32  32 100 NE6       29.99F FOG     WCI  26
SHAWANO        FOG       34  33  96 NE3       30.03F VSB 1/4
OCONTO         CLOUDY    34  34 100 CALM      30.04S
STURGEON BAY   CLOUDY    36  34  93 CALM      30.05S
GREEN BAY      CLOUDY    35  33  92 MISG      30.03S FOG
MANITOWOC      PTCLDY    35  34  96 N6        30.03R WCI  30
APPLETON       CLOUDY    34  34 100 NE8       30.02R FOG     WCI  27
CLINTONVILLE   CLOUDY    32  32 100 NE5       30.02S FOG     WCI  27
OSHKOSH        CLOUDY    35  32  88 NE12      30.01R FOG     WCI  27
$$

WIZ032>034-041-042-053>061-270200-
SOUTHWEST WISCONSIN

CITY           SKY/WX    TMP DP  RH WIND       PRES   REMARKS
LA CROSSE      CLOUDY    36  32  85 NW8       30.01R WCI  30
SPARTA         CLOUDY    37  32  84 N3        30.02R
VIROQUA        CLOUDY    35  35 100 N5        29.98R WCI  31
BOSCOBEL       MOCLDY    35  31  85 CALM      29.99S
PRAIRIE DU CHI PTCLDY    35  32  87 CALM      30.00R
PLATTEVILLE    PTCLDY    39  35  87 CALM      29.99S
$$

WIZ056-057-062-063-064-067-068-270200-
SOUTH CENTRAL WISCONSIN

CITY           SKY/WX    TMP DP  RH WIND       PRES   REMARKS
REEDSBURG      CLOUDY    34  32  92 CALM      29.99R
BARABOO/DELLS  CLOUDY    34  32  92 CALM      29.99R
LONE ROCK      PTCLDY    37  30  75 CALM      29.99R
MINERAL POINT  MOCLDY    41  36  81 CALM      29.98S
MADISON        MOCLDY    36  32  85 CALM      29.99R
MIDDLETON      MOCLDY    36  35  94 CALM      30.00S
WATERTOWN      MOCLDY    39  36  89 SE7       29.99S WCI  34
MONROE         CLOUDY    43  36  75 S3        29.98S
JANESVILLE     CLOUDY    43  37  81 CALM      29.99R
$$

WIZ051-052-058>065-066-070>072-270200-
SOUTHEAST WISCONSIN

CITY           SKY/WX    TMP DP  RH WIND       PRES   REMARKS
MILWAUKEE      CLOUDY    41  35  79 CALM      30.02R
WAUKESHA       PTCLDY    37  34  87 CALM      30.02R
MILWAUKEE/TIMM PTCLDY   N/A N/A N/A CALM      30.02R
RACINE         CLOUDY    42  36  79 S3        30.04R
BURLINGTON     CLOUDY    38  35  88 CALM      30.01S
KENOSHA        CLOUDY    46  38  73 SW5       30.02R
FOND DU LAC    MOCLDY    33  30  88 CALM      30.01R
SHEBOYGAN      MOCLDY    31  30  96 CALM      30.02R
WEST BEND      PTCLDY    34  32  93 SE5       30.00S WCI  30
JUNEAU         PTCLDY    36  33  91 CALM      30.01S
$$

LSZ147-162-270200-
LAKE SUPERIOR

STATION/POSITION TIME  TEMP    WIND        PRES    WAVE
                       AIR SEA DIR/SP/G            HT/PER
                 (UTC) (F)     (DEG/KT/KT) (MB)    (FT/S)
DEVILS ISLAND    0100   33      10/  9/ 10 1019.9R
PORT WING        0000   33     340/  8/  9 1019.0
SAXON HARBOR     0000   33     350/  4/  5 1018.6S
$$

LMZ867-665-643>646-270200-
LAKE MICHIGAN

STATION/POSITION TIME  TEMP    WIND        PRES    WAVE
                       AIR SEA DIR/SP/G            HT/PER
                 (UTC) (F)     (DEG/KT/KT) (MB)    (FT/S)
CHAMBERS ISLAND  0000   35     360/  9/ 11 1017.3R
NORTHPORT PIER   0000   35      10/  2/  3 1017.3R
SISTER BAY       0043             CALM       N/A
ALGOMA LAKESHORE 0015          340/  7/  9   N/A
KEWAUNEE LAKESHO 0000   36     350/  2/  5 1015.8R
SHEBOYGAN LAKESH 0100   40 39  260/  2/  2 1017.3R
PORT WASHINGTON  0040   38     280/  2/  3 1016.9S
MILWAUKEE LAKESH 0000   39     290/  2/  4   N/A
KENOSHA   LAKESH 0100   45     220/  4/  5 1016.6R
$$

TC  - TEMPERATURE IN CELSIUS
VSB - VISIBILITY IN STATUTE MILES
WCI - WIND CHILL INDEX
HX  - HEAT INDEX



USA.gov is the U.S. government's official web portal to all federal, state and local government web resources and services.